Location: Freiburg+im+Breisgau
(48.0359°N, 7.8195°E)
Time: 03:53:18
(UTC+01:00)

ISS - Pass Details

Date: 08 January 2018
Orbit: 402 x 407 km, 51.6° (Epoch: 21 January)

Event Time Altitude Azimuth Distance (km) Brightness Sun altitude
Exits shadow 06:38:33 35° 318° (NW) 681 -3.2 -15.8°
Maximum altitude 06:39:34 50° 11° (NNE) 524 -3.4 -15.7°
Drops below altitude 10° 06:42:48 10° 89° (E) 1,469 0.2 -15.1°
Sets 06:44:55 0° 95° (E) 2,329 1.7 -14.8°
